timestamp,surface_pressure_avg,surface_temp_avg,battery_voltage,lat,long
2022-10-10 00:09:00+00:00,385.8129,14.0,11.7,47.84626,-54.09684
2022-10-10 00:19:00+00:00,390.8011,14.0,11.7,47.84626,-54.09684
2022-10-10 00:29:00+00:00,385.4012,14.0,11.7,47.84626,-54.09684
2022-10-10 00:39:00+00:00,372.8563,14.0,11.7,47.84626,-54.09684
2022-10-10 00:49:00+00:00,370.4829,14.0,11.7,47.84626,-54.09684
2022-10-10 00:59:00+00:00,369.6595,14.0,11.7,47.84626,-54.09684
2022-10-10 01:09:00+00:00,361.4929,14.0,11.7,47.84626,-54.09684
2022-10-10 01:19:00+00:00,355.3096,14.0,11.7,47.84626,-54.09684
2022-10-10 01:29:00+00:00,354.0797,14.0,11.7,47.84626,-54.09684
2022-10-10 01:39:00+00:00,346.9229,14.0,11.7,47.84626,-54.09684
2022-10-10 01:49:00+00:00,337.7112,14.0,11.7,47.84626,-54.09684
2022-10-10 01:59:00+00:00,328.0247,14.0,11.7,47.84626,-54.09684
2022-10-10 02:09:00+00:00,322.6979,14.0,11.7,47.84626,-54.09684
2022-10-10 02:19:00+00:00,314.123,14.0,11.7,47.84626,-54.09684
2022-10-10 02:29:00+00:00,300.8181,14.0,11.7,47.84626,-54.09684
2022-10-10 02:39:00+00:00,290.6197,14.0,11.7,47.84626,-54.09684
2022-10-10 02:49:00+00:00,285.8897,14.0,11.7,47.84626,-54.09684
2022-10-10 02:59:00+00:00,278.2397,14.0,11.7,47.84626,-54.09684
2022-10-10 03:09:00+00:00,264.2831,14.0,11.7,47.84626,-54.09684
2022-10-10 03:19:00+00:00,253.4131,14.0,11.61,47.84626,-54.09684
2022-10-10 03:29:00+00:00,245.768,14.0,11.61,47.84626,-54.09684
2022-10-10 03:39:00+00:00,236.9581,14.0,11.61,47.84626,-54.09684
2022-10-10 03:49:00+00:00,227.3547,13.99,11.61,47.84626,-54.09684
2022-10-10 03:59:00+00:00,223.5964,13.99,11.61,47.84626,-54.09684
2022-10-10 04:09:00+00:00,215.9897,13.99,11.61,47.84626,-54.09684
2022-10-10 04:19:00+00:00,206.3864,13.98,11.61,47.84626,-54.09684
2022-10-10 04:29:00+00:00,202.2898,13.98,11.61,47.84626,-54.09684
2022-10-10 04:39:00+00:00,202.3465,13.97,11.61,47.84626,-54.09684
2022-10-10 04:49:00+00:00,197.5598,13.95,11.61,47.84626,-54.09684
2022-10-10 04:59:00+00:00,190.0548,13.9,11.61,47.84626,-54.09684
2022-10-10 05:09:00+00:00,189.8015,13.9,11.61,47.84626,-54.09684
2022-10-10 05:19:00+00:00,190.8131,13.9,11.61,47.84626,-54.09684
2022-10-10 05:29:00+00:00,188.8098,13.9,11.61,47.84626,-54.09684
2022-10-10 05:39:00+00:00,189.8665,13.9,11.61,47.84626,-54.09684
2022-10-10 05:49:00+00:00,190.9615,13.9,11.61,47.84626,-54.09684
2022-10-10 05:59:00+00:00,191.5648,13.9,11.61,47.84626,-54.09684
2022-10-10 06:09:00+00:00,195.7181,13.9,11.61,47.84626,-54.09684
2022-10-10 06:19:00+00:00,199.1915,13.9,11.61,47.84626,-54.09684
2022-10-10 06:29:00+00:00,202.2264,13.9,11.61,47.84626,-54.09684
2022-10-10 06:39:00+00:00,205.8148,13.9,11.61,47.84626,-54.09684
2022-10-10 06:49:00+00:00,210.2131,13.9,11.61,47.84626,-54.09684
2022-10-10 06:59:00+00:00,214.7565,13.9,11.61,47.84626,-54.09684
2022-10-10 07:09:00+00:00,220.8548,13.86,11.61,47.84626,-54.09684
2022-10-10 07:19:00+00:00,225.6548,13.8,11.61,47.84626,-54.09684
2022-10-10 07:29:00+00:00,227.8131,13.8,11.61,47.84626,-54.09684
2022-10-10 07:39:00+00:00,232.9214,13.8,11.61,47.84626,-54.09684
2022-10-10 07:49:00+00:00,241.3914,13.8,11.61,47.84626,-54.09684
2022-10-10 07:59:00+00:00,247.6814,13.8,11.61,47.84626,-54.09684
2022-10-10 08:09:00+00:00,251.4247,13.8,11.61,47.84626,-54.09684
2022-10-10 08:19:01+00:00,257.5048,13.8,11.61,47.84626,-54.09684
2022-10-10 08:29:01+00:00,263.6497,13.8,11.61,47.84626,-54.09684
2022-10-10 08:39:01+00:00,267.7264,13.8,11.61,47.84626,-54.09684
2022-10-10 08:49:01+00:00,271.2564,13.8,11.61,47.84626,-54.09684
2022-10-10 08:59:01+00:00,278.0664,13.8,11.61,47.84626,-54.09684
2022-10-10 09:09:01+00:00,283.7731,13.8,11.61,47.84626,-54.09684
2022-10-10 09:19:00+00:00,288.1397,13.8,11.61,47.84626,-54.09684
2022-10-10 09:29:00+00:00,295.5281,13.8,11.61,47.84626,-54.09684
2022-10-10 09:39:00+00:00,306.1697,13.8,11.61,47.84626,-54.09684
2022-10-10 09:49:00+00:00,313.313,13.8,11.61,47.84626,-54.09684
2022-10-10 09:59:00+00:00,320.5463,13.79,11.61,47.84626,-54.09684
2022-10-10 10:09:00+00:00,331.9963,13.78,11.61,47.84626,-54.09684
2022-10-10 10:19:00+00:00,338.7812,13.75,11.61,47.84626,-54.09684
2022-10-10 10:29:00+00:00,344.413,13.76,11.61,47.84626,-54.09684
2022-10-10 10:39:00+00:00,353.6363,13.7,11.61,47.84626,-54.09684
2022-10-10 10:49:00+00:00,361.3179,13.7,11.61,47.84626,-54.09684
2022-10-10 10:59:00+00:00,366.3162,13.72,11.61,47.84626,-54.09684
2022-10-10 11:09:00+00:00,373.3045,13.7,11.61,47.84626,-54.09684
2022-10-10 11:19:00+00:00,379.0797,13.7,12.09,47.84626,-54.09684
2022-10-10 11:29:00+00:00,379.6163,13.77,12.09,47.84626,-54.09684
2022-10-10 11:39:00+00:00,382.3445,13.76,12.09,47.84626,-54.09684
2022-10-10 11:49:00+00:00,384.8379,13.74,12.09,47.84626,-54.09684
2022-10-10 11:59:00+00:00,379.9929,13.79,12.09,47.84626,-54.09684
2022-10-10 12:09:00+00:00,378.0597,13.8,12.09,47.84626,-54.09684
2022-10-10 12:19:01+00:00,381.9396,13.8,11.77,47.84626,-54.09684
2022-10-10 12:29:01+00:00,379.8196,13.8,11.77,47.84626,-54.09684
2022-10-10 12:39:01+00:00,369.548,13.89,11.77,47.84626,-54.09684
2022-10-10 12:49:01+00:00,366.7712,13.89,11.77,47.84626,-54.09684
2022-10-10 12:59:01+00:00,364.1163,13.88,11.77,47.84626,-54.09684
2022-10-10 13:09:01+00:00,355.2362,13.89,11.77,47.84626,-54.09684
2022-10-10 13:19:00+00:00,347.9046,13.9,12.17,47.84626,-54.09684
2022-10-10 13:29:00+00:00,345.8013,13.9,12.17,47.84626,-54.09684
2022-10-10 13:39:00+00:00,342.403,13.9,12.17,47.84626,-54.09684
2022-10-10 13:49:00+00:00,333.9664,13.9,12.17,47.84626,-54.09684
2022-10-10 13:59:00+00:00,326.9313,13.9,12.17,47.84626,-54.09684
2022-10-10 14:09:00+00:00,320.2164,13.9,12.17,47.84626,-54.09684
2022-10-10 14:19:00+00:00,313.313,13.9,12.17,47.84626,-54.09684
2022-10-10 14:29:00+00:00,305.903,13.9,12.17,47.84626,-54.09684
2022-10-10 14:39:00+00:00,295.9547,13.9,12.17,47.84626,-54.09684
2022-10-10 14:49:00+00:00,286.1781,13.9,12.17,47.84626,-54.09684
2022-10-10 14:59:00+00:00,275.8664,13.9,12.17,47.84626,-54.09684
2022-10-10 15:09:00+00:00,266.1531,13.9,12.17,47.84626,-54.09684
2022-10-10 15:19:00+00:00,255.2298,13.9,12.17,47.84626,-54.09684
2022-10-10 15:29:00+00:00,245.2614,13.9,12.17,47.84626,-54.09684
2022-10-10 15:39:00+00:00,239.1597,13.9,12.17,47.84626,-54.09684
2022-10-10 15:49:00+00:00,229.8414,13.9,12.17,47.84626,-54.09684
2022-10-10 15:59:00+00:00,216.4081,13.9,12.17,47.84626,-54.09684
2022-10-10 16:09:00+00:00,209.9381,13.9,12.17,47.84626,-54.09684
2022-10-10 16:19:00+00:00,208.9481,13.9,12.09,47.84626,-54.09684
2022-10-10 16:29:00+00:00,200.2781,13.91,12.09,47.84626,-54.09684
2022-10-10 16:39:00+00:00,189.9015,13.92,12.09,47.84626,-54.09684
2022-10-10 16:49:00+00:00,188.0331,13.92,12.09,47.84626,-54.09684
2022-10-10 16:59:00+00:00,184.2448,13.94,12.09,47.84626,-54.09684
2022-10-10 17:09:00+00:00,174.7331,13.95,12.09,47.84626,-54.09684
2022-10-10 17:19:00+00:00,168.6648,13.95,12.09,47.84626,-54.09684
2022-10-10 17:29:00+00:00,168.0498,13.97,12.09,47.84626,-54.09684
2022-10-10 17:39:00+00:00,168.3849,13.99,12.09,47.84626,-54.09684
2022-10-10 17:49:00+00:00,167.2198,13.99,12.09,47.84626,-54.09684
2022-10-10 17:59:00+00:00,167.6265,13.99,12.09,47.84626,-54.09684
2022-10-10 18:09:00+00:00,168.8715,13.99,12.09,47.84626,-54.09684
2022-10-10 18:19:00+00:00,170.4031,14.0,12.01,47.84626,-54.09684
2022-10-10 18:29:00+00:00,172.4448,13.99,12.01,47.84626,-54.09684
2022-10-10 18:39:00+00:00,172.9448,14.0,12.01,47.84626,-54.09684
2022-10-10 18:49:00+00:00,174.2715,13.99,12.01,47.84626,-54.09684
2022-10-10 18:59:00+00:00,177.6565,14.0,12.01,47.84626,-54.09684
2022-10-10 19:09:00+00:00,183.6198,14.0,12.01,47.84626,-54.09684
2022-10-10 19:19:00+00:00,191.5048,14.0,11.86,47.84626,-54.09684
2022-10-10 19:29:00+00:00,199.2581,14.0,11.86,47.84626,-54.09684
2022-10-10 19:39:00+00:00,205.6314,14.0,11.86,47.84626,-54.09684
2022-10-10 19:49:00+00:00,210.5598,14.0,11.86,47.84626,-54.09684
2022-10-10 19:59:00+00:00,213.1881,13.98,11.86,47.84626,-54.09684
2022-10-10 20:09:00+00:00,218.3264,13.95,11.86,47.84626,-54.09684
2022-10-10 20:19:01+00:00,224.5748,13.94,11.77,47.84626,-54.09684
2022-10-10 20:29:01+00:00,227.2081,13.91,11.77,47.84626,-54.09684
2022-10-10 20:39:01+00:00,230.1614,13.92,11.77,47.84626,-54.09684
2022-10-10 20:49:01+00:00,236.0331,13.9,11.77,47.84626,-54.09684
2022-10-10 20:59:01+00:00,242.0764,13.9,11.77,47.84626,-54.09684
2022-10-10 21:09:01+00:00,250.9265,13.9,11.77,47.84626,-54.09684
2022-10-10 21:19:00+00:00,260.7297,13.9,11.77,47.84626,-54.09684
2022-10-10 21:29:00+00:00,269.2198,13.9,11.77,47.84626,-54.09684
2022-10-10 21:39:00+00:00,272.4897,13.9,11.77,47.84626,-54.09684
2022-10-10 21:49:00+00:00,277.6913,13.9,11.77,47.84626,-54.09684
2022-10-10 21:59:00+00:00,285.5814,13.9,11.77,47.84626,-54.09684
2022-10-10 22:09:00+00:00,295.2797,13.9,11.77,47.84626,-54.09684
2022-10-10 22:19:01+00:00,302.173,13.9,11.77,47.84626,-54.09684
2022-10-10 22:29:01+00:00,312.5197,13.9,11.77,47.84626,-54.09684
2022-10-10 22:39:01+00:00,323.0347,13.9,11.77,47.84626,-54.09684
2022-10-10 22:49:01+00:00,332.4097,13.9,11.77,47.84626,-54.09684
2022-10-10 22:59:01+00:00,339.5613,13.9,11.77,47.84626,-54.09684
2022-10-10 23:09:01+00:00,348.8863,13.9,11.77,47.84626,-54.09684
2022-10-10 23:19:00+00:00,357.418,13.9,11.77,47.84626,-54.09684
2022-10-10 23:29:00+00:00,364.3196,13.9,11.77,47.84626,-54.09684
2022-10-10 23:39:00+00:00,368.3096,13.9,11.77,47.84626,-54.09684
2022-10-10 23:49:00+00:00,370.1847,13.9,11.77,47.84626,-54.09684
2022-10-10 23:59:00+00:00,372.5179,13.9,11.77,47.84626,-54.09684
